Flag for Germany Weather past 2 weeks in Bochum, North Rhine-Westphalia, Germany

Now
61 °F

Passing clouds.


Feels Like: 61 °F
Forecast: 50 / 65 °F
Wind: 6 mph from West

Location: Dortmund / Wickede

Current Time: Sep 2, 2015 at 5:37:46 PM

Latest Report: Sep 2, 2015 at 5:20 PM


Visibility: N/A

Pressure: 30.01 "Hg

Humidity: 72%

Dew point: 52 °F

Location of BochumLocation

Historic Weather in Bochum — Graph

°F

Bochum temperature yesterday

Maximum temperature yesterday: 64 °F (at 5:20 AM)
Minimum temperature yesterday: 57 °F (at 9:20 PM)
Average temperature yesterday: 60 °F

Past Weeks' High & Low Weather Summary

 TemperatureHumidityPressure
High88 °F (Aug 30, 2:20 PM)94% (Aug 24, 5:20 AM)30.24 "Hg (Aug 24, 5:20 AM)
Low48 °F (Sep 2, 5:50 AM)26% (Aug 22, 4:50 PM)29.56 "Hg (Aug 24, 2:50 PM)
Average67 °F62%29.97 "Hg
* Reported Aug 18 4:20 PM — Sep 2 4:20 PM, Bochum, Weather by CustomWeather, © 2015

Note: Actual official high and low records may vary slightly from our data, if they occured in-between our weather recording intervals... More about our weather records

Advertising

Bochum weather history for previous 24 hours

 ConditionsComfort  
Time TempWeatherWind HumidityBarometerVisibility
4:20 PM
Wed, Sep 2
57 °FPartly sunny.5 mph82%30.01 "HgN/A
3:50 PM57 °FScattered clouds.5 mph82%30.01 "HgN/A
3:20 PM57 °FLight rain. Scattered clouds.6 mph77%30.01 "HgN/A
2:50 PM61 °FScattered clouds.3 mph68%30.01 "HgN/A
2:20 PM64 °FScattered clouds.9 mph56%30.01 "HgN/A
1:50 PM63 °FScattered clouds.10 mph56%30.01 "HgN/A
1:20 PM61 °FPassing clouds.9 mph63%30.01 "HgN/A
12:50 PM63 °FScattered clouds.7 mph64%30.01 "HgN/A
12:20 PM61 °FScattered clouds.8 mph63%30.01 "HgN/A
11:50 AM61 °FScattered clouds.8 mph63%30.04 "HgN/A
11:20 AM59 °FPassing clouds.9 mph59%30.04 "HgN/A
10:50 AM59 °FSunny.7 mph72%30.04 "Hg10 mi
10:20 AM57 °FCool.9 mph77%30.04 "HgN/A
9:50 AM57 °FSunny.9 mph77%30.04 "Hg10 mi
9:20 AM55 °FSunny.8 mph77%30.04 "Hg10 mi
8:50 AM54 °FSunny.9 mph82%30.04 "Hg10 mi
8:20 AM54 °FSunny.8 mph82%30.04 "Hg10 mi
7:50 AM52 °FSunny.8 mph88%30.04 "Hg10 mi
7:20 AM50 °FClear.8 mph88%30.04 "Hg10 mi
6:50 AM50 °FClear.7 mph88%30.04 "Hg10 mi
6:20 AM48 °FClear.8 mph87%30.04 "Hg10 mi
5:50 AM48 °FClear.8 mph87%30.04 "Hg10 mi
5:20 AM50 °FClear.7 mph88%30.04 "Hg10 mi
10:50 PM
Tue, Sep 1
57 °FPassing clouds.6 mph77%30.01 "HgN/A
10:20 PM57 °FPassing clouds.6 mph82%30.01 "HgN/A
9:50 PM59 °FPassing clouds.5 mph77%30.01 "HgN/A
9:20 PM57 °FPassing clouds.3 mph82%30.01 "HgN/A
8:50 PM59 °FSunny.3 mph77%30.01 "Hg10 mi
8:20 PM59 °FSunny.3 mph82%29.98 "Hg10 mi
7:50 PM59 °FSunny.3 mph82%29.98 "Hg10 mi
7:20 PM61 °FSunny.2 mph77%29.95 "Hg10 mi
6:50 PM61 °FPassing clouds.5 mph77%29.95 "HgN/A
6:20 PM61 °FScattered clouds.6 mph77%29.95 "HgN/A
5:50 PM63 °FScattered clouds.6 mph77%29.95 "HgN/A
5:20 PM61 °FBroken clouds.5 mph77%29.95 "HgN/A
Weather by CustomWeather, © 2015

See weather overviewHow to use our weather pages